| time (UTC) | temp F | wind direction | speed MPH | gust MPH | rain 1hr in | rain 24hr in | rain mn in | humidity % | barometer mb |
| 20260503204309 | 51 | 129 | 5.0 | 14.0 | 0.00 | 0.00 | 0.00 | 36 | 1017.2 |
| 20260503203806 | 51 | 108 | 4.0 | 10.0 | 0.00 | 0.00 | 0.00 | 35 | 1017.3 |
| 20260503203303 | 51 | 20 | 2.0 | 13.0 | 0.00 | 0.00 | 0.00 | 35 | 1017.5 |
| 20260503202800 | 54 | 187 | 3.0 | 18.0 | 0.00 | 0.00 | 0.00 | 35 | 1017.3 |
| 20260503202258 | 54 | 172 | 0.0 | 6.0 | 0.00 | 0.00 | 0.00 | 30 | 1017.6 |
| 20260503201755 | 53 | 199 | 9.0 | 13.0 | 0.00 | 0.00 | 0.00 | 34 | 1017.7 |
| 20260503201253 | 54 | 176 | 3.0 | 15.0 | 0.00 | 0.00 | 0.00 | 36 | 1017.8 |
| 20260503200750 | 54 | 194 | 5.0 | 10.0 | 0.00 | 0.00 | 0.00 | 34 | 1017.7 |
| 20260503200245 | 57 | 150 | 10.0 | 10.0 | 0.00 | 0.00 | 0.00 | 31 | 1017.7 |
| 20260503195743 | 53 | 202 | 4.0 | 12.0 | 0.00 | 0.00 | 0.00 | 32 | 1017.7 |
| 20260503195239 | 55 | 278 | 0.0 | 6.0 | 0.00 | 0.00 | 0.00 | 31 | 1017.8 |
| 20260503194737 | 54 | 162 | 4.0 | 14.0 | 0.00 | 0.00 | 0.00 | 34 | 1017.8 |
| 20260503194232 | 54 | 145 | 2.0 | 7.0 | 0.00 | 0.00 | 0.00 | 32 | 1017.8 |
| 20260503193729 | 53 | 185 | 2.0 | 10.0 | 0.00 | 0.00 | 0.00 | 36 | 1018.0 |
| 20260503193225 | 54 | 308 | 3.0 | 11.0 | 0.00 | 0.00 | 0.00 | 35 | 1018.0 |
| 20260503192721 | 55 | 71 | 2.0 | 15.0 | 0.00 | 0.00 | 0.00 | 36 | 1018.0 |
| 20260503192216 | 53 | 354 | 10.0 | 12.0 | 0.00 | 0.00 | 0.00 | 35 | 1018.0 |
| 20260503191713 | 53 | 18 | 3.0 | 16.0 | 0.00 | 0.00 | 0.00 | 36 | 1018.2 |
| 20260503191211 | 52 | 193 | 3.0 | 9.0 | 0.00 | 0.00 | 0.00 | 34 | 1018.3 |
| 20260503190707 | 49 | 4 | 6.0 | 15.0 | 0.00 | 0.00 | 0.00 | 34 | 1018.4 |
| 20260503190204 | 50 | 346 | 4.0 | 18.0 | 0.00 | 0.00 | 0.00 | 37 | 1018.5 |
| 20260503185701 | 50 | 95 | 6.0 | 10.0 | 0.00 | 0.00 | 0.00 | 34 | 1018.1 |
| 20260503185156 | 52 | 91 | 4.0 | 8.0 | 0.00 | 0.00 | 0.00 | 33 | 1018.3 |
| 20260503184651 | 54 | 156 | 3.0 | 8.0 | 0.00 | 0.00 | 0.00 | 34 | 1018.5 |
| 20260503184148 | 55 | 76 | 0.0 | 3.0 | 0.00 | 0.00 | 0.00 | 35 | 1018.3 |
| 20260503183644 | 55 | 355 | 2.0 | 11.0 | 0.00 | 0.00 | 0.00 | 32 | 1018.4 |
| 20260503183142 | 53 | 210 | 3.0 | 20.0 | 0.00 | 0.00 | 0.00 | 32 | 1018.4 |
| 20260503182640 | 52 | 189 | 10.0 | 24.0 | 0.00 | 0.00 | 0.00 | 35 | 1018.4 |
| 20260503182139 | 48 | 165 | 7.0 | 15.0 | 0.00 | 0.00 | 0.00 | 37 | 1018.3 |
| 20260503181635 | 47 | 10 | 9.0 | 18.0 | 0.00 | 0.00 | 0.00 | 37 | 1018.7 |
| 20260503181131 | 48 | 48 | 11.0 | 15.0 | 0.00 | 0.00 | 0.00 | 36 | 1018.9 |
| 20260503180628 | 47 | 117 | 6.0 | 13.0 | 0.00 | 0.00 | 0.00 | 35 | 1018.8 |
| 20260503180126 | 51 | 345 | 13.0 | 18.0 | 0.00 | 0.00 | 0.00 | 33 | 1019.1 |
| 20260503175623 | 51 | 352 | 2.0 | 9.0 | 0.00 | 0.00 | 0.00 | 37 | 1019.0 |
| 20260503175120 | 50 | 340 | 6.0 | 9.0 | 0.00 | 0.00 | 0.00 | 36 | 1018.9 |
| 20260503174616 | 48 | 92 | 8.0 | 12.0 | 0.00 | 0.00 | 0.00 | 35 | 1018.8 |
| 20260503174114 | 47 | 78 | 12.0 | 17.0 | 0.00 | 0.00 | 0.00 | 37 | 1018.8 |
| 20260503173609 | 50 | 181 | 2.0 | 8.0 | 0.00 | 0.00 | 0.00 | 43 | 1018.7 |
| 20260503173105 | 45 | 62 | 7.0 | 15.0 | 0.00 | 0.00 | 0.00 | 36 | 1018.8 |
| 20260503172602 | 47 | 322 | 7.0 | 24.0 | 0.00 | 0.00 | 0.00 | 37 | 1019.1 |
| 20260503172100 | 47 | 117 | 6.0 | 10.0 | 0.00 | 0.00 | 0.00 | 38 | 1018.9 |
| 20260503171556 | 46 | 339 | 16.0 | 24.0 | 0.00 | 0.00 | 0.00 | 40 | 1018.8 |
| 20260503171054 | 46 | 341 | 10.0 | 16.0 | 0.00 | 0.00 | 0.00 | 40 | 1019.1 |
| 20260503170549 | 44 | 18 | 14.0 | 16.0 | 0.00 | 0.00 | 0.00 | 39 | 1019.2 |
| 20260503150942 | 47 | 150 | 4.0 | 11.0 | 0.00 | 0.00 | 0.00 | 46 | 1020.0 |
| 20260503150439 | 42 | 108 | 2.0 | 15.0 | 0.00 | 0.00 | 0.00 | 49 | 1020.0 |
| 20260503131332 | 37 | 129 | 8.0 | 14.0 | 0.00 | 0.00 | 0.00 | 54 | 1019.2 |
| 20260503130829 | 36 | 172 | 2.0 | 24.0 | 0.00 | 0.00 | 0.00 | 58 | 1019.1 |
| 20260503130327 | 39 | 52 | 5.0 | 7.0 | 0.00 | 0.00 | 0.00 | 57 | 1019.3 |
| 20260503110720 | 31 | 120 | 3.0 | 7.0 | 0.00 | 0.00 | 0.00 | 75 | 1017.9 |
| 20260503110217 | 31 | 40 | 9.0 | 10.0 | 0.00 | 0.00 | 0.00 | 75 | 1018.1 |
| 20260503100138 | 31 | 10 | 5.0 | 14.0 | 0.00 | 0.00 | 0.00 | 77 | 1017.3 |
| 20260503081532 | 32 | 355 | 2.0 | 8.0 | 0.00 | 0.00 | 0.00 | 74 | 1016.9 |
| 20260503081030 | 32 | 80 | 6.0 | 14.0 | 0.00 | 0.00 | 0.00 | 75 | 1016.6 |
| 20260503080526 | 32 | 110 | 9.0 | 15.0 | 0.00 | 0.00 | 0.00 | 75 | 1016.6 |
| 20260503072459 | 33 | 62 | 3.0 | 9.0 | 0.00 | 0.00 | 0.00 | 73 | 1016.1 |
| 20260503071956 | 33 | 44 | 3.0 | 5.0 | 0.00 | 0.00 | 0.00 | 74 | 1015.9 |
| 20260503071453 | 33 | 137 | 3.0 | 6.0 | 0.00 | 0.00 | 0.00 | 73 | 1016.0 |
| 20260503070949 | 33 | 107 | 1.0 | 12.0 | 0.00 | 0.00 | 0.00 | 72 | 1016.3 |
| 20260503070446 | 33 | 92 | 1.0 | 3.0 | 0.00 | 0.00 | 0.00 | 73 | 1016.0 |
| 20260503054900 | 34 | 89 | 5.0 | 7.0 | 0.00 | 0.00 | 0.00 | 75 | 1016.1 |
| 20260503054356 | 34 | 342 | 2.0 | 11.0 | 0.00 | 0.00 | 0.00 | 75 | 1016.0 |
| 20260503053854 | 34 | 63 | 9.0 | 15.0 | 0.00 | 0.00 | 0.00 | 75 | 1015.9 |
| 20260503053352 | 34 | 39 | 2.0 | 14.0 | 0.00 | 0.00 | 0.00 | 75 | 1016.1 |
| 20260503052848 | 34 | 112 | 12.0 | 15.0 | 0.00 | 0.00 | 0.00 | 76 | 1016.1 |
| 20260503052345 | 34 | 114 | 1.0 | 9.0 | 0.00 | 0.00 | 0.00 | 76 | 1016.0 |
| 20260503051842 | 34 | 119 | 5.0 | 8.0 | 0.00 | 0.00 | 0.00 | 76 | 1015.9 |
| 20260503051338 | 34 | 148 | 1.0 | 5.0 | 0.00 | 0.00 | 0.00 | 76 | 1015.9 |
| 20260503050835 | 35 | 72 | 4.0 | 10.0 | 0.00 | 0.00 | 0.00 | 75 | 1015.9 |
| 20260503050331 | 35 | 49 | 3.0 | 3.0 | 0.00 | 0.00 | 0.00 | 75 | 1016.0 |
| 20260503045829 | 35 | 115 | 4.0 | 17.0 | 0.00 | 0.00 | 0.00 | 74 | 1016.0 |
| 20260503045327 | 35 | 37 | 2.0 | 10.0 | 0.00 | 0.00 | 0.00 | 74 | 1016.0 |
| 20260503044823 | 35 | 109 | 14.0 | 14.0 | 0.00 | 0.00 | 0.00 | 74 | 1015.9 |
| 20260503044320 | 36 | 112 | 10.0 | 11.0 | 0.00 | 0.00 | 0.00 | 75 | 1015.7 |
| 20260503043817 | 36 | 91 | 4.0 | 9.0 | 0.00 | 0.00 | 0.00 | 74 | 1015.8 |
| 20260503043314 | 35 | 167 | 3.0 | 11.0 | 0.00 | 0.00 | 0.00 | 76 | 1016.1 |
| 20260503042810 | 36 | 84 | 4.0 | 7.0 | 0.00 | 0.00 | 0.00 | 75 | 1015.9 |
| 20260503042307 | 36 | 8 | 3.0 | 5.0 | 0.00 | 0.00 | 0.00 | 75 | 1016.0 |
| 20260503041803 | 36 | 349 | 6.0 | 7.0 | 0.00 | 0.00 | 0.00 | 74 | 1016.0 |
| 20260503041300 | 36 | 13 | 3.0 | 4.0 | 0.00 | 0.00 | 0.00 | 73 | 1016.0 |
| 20260503040758 | 36 | 77 | 3.0 | 4.0 | 0.00 | 0.00 | 0.00 | 75 | 1015.9 |
| 20260503040255 | 36 | 91 | 4.0 | 6.0 | 0.00 | 0.00 | 0.00 | 73 | 1016.4 |
| 20260503035752 | 36 | 88 | 3.0 | 6.0 | 0.00 | 0.00 | 0.00 | 75 | 1016.0 |
| 20260503035249 | 36 | 59 | 3.0 | 5.0 | 0.00 | 0.00 | 0.00 | 73 | 1016.3 |
| 20260503034746 | 36 | 64 | 3.0 | 6.0 | 0.00 | 0.00 | 0.00 | 73 | 1016.1 |
| 20260503034243 | 36 | 84 | 2.0 | 5.0 | 0.00 | 0.00 | 0.00 | 74 | 1016.1 |
| 20260503033741 | 36 | 14 | 6.0 | 8.0 | 0.00 | 0.00 | 0.00 | 74 | 1016.1 |
| 20260503033238 | 37 | 107 | 6.0 | 9.0 | 0.00 | 0.00 | 0.00 | 74 | 1016.1 |
| 20260503032736 | 36 | 120 | 3.0 | 5.0 | 0.00 | 0.00 | 0.00 | 73 | 1016.1 |
| 20260503032235 | 37 | 1 | 2.0 | 5.0 | 0.00 | 0.00 | 0.00 | 72 | 1016.1 |
| 20260503031732 | 37 | 330 | 2.0 | 5.0 | 0.00 | 0.00 | 0.00 | 71 | 1016.1 |
| 20260503031230 | 37 | 112 | 4.0 | 8.0 | 0.00 | 0.00 | 0.00 | 70 | 1016.0 |
| 20260503030725 | 37 | 341 | 2.0 | 4.0 | 0.00 | 0.00 | 0.00 | 70 | 1016.3 |
| 20260503030222 | 37 | 50 | 3.0 | 5.0 | 0.00 | 0.00 | 0.00 | 69 | 1016.0 |
| 20260503025719 | 37 | 181 | 2.0 | 5.0 | 0.00 | 0.00 | 0.00 | 69 | 1016.4 |
| 20260503025217 | 37 | 99 | 3.0 | 4.0 | 0.00 | 0.00 | 0.00 | 70 | 1016.6 |
| 20260503024713 | 37 | 32 | 1.0 | 3.0 | 0.00 | 0.00 | 0.00 | 70 | 1016.4 |
| 20260503024211 | 37 | 115 | 3.0 | 4.0 | 0.00 | 0.00 | 0.00 | 68 | 1016.4 |
| 20260503023707 | 37 | 91 | 2.0 | 7.0 | 0.00 | 0.00 | 0.00 | 67 | 1016.5 |
| 20260503023203 | 37 | 37 | 1.0 | 7.0 | 0.00 | 0.00 | 0.00 | 66 | 1016.3 |
| 20260503022659 | 38 | 217 | 3.0 | 6.0 | 0.00 | 0.00 | 0.00 | 66 | 1016.4 |
| 20260503022159 | 37 | 24 | 3.0 | 4.0 | 0.00 | 0.00 | 0.00 | 67 | 1016.4 |
| 20260503021656 | 37 | 302 | 3.0 | 7.0 | 0.00 | 0.00 | 0.00 | 67 | 1016.3 |
| 20260503021153 | 37 | 30 | 1.0 | 5.0 | 0.00 | 0.00 | 0.00 | 67 | 1015.9 |
| 20260503020650 | 37 | 89 | 0.0 | 4.0 | 0.00 | 0.00 | 0.00 | 69 | 1016.0 |
| 20260503020147 | 36 | 92 | 2.0 | 3.0 | 0.00 | 0.00 | 0.00 | 73 | 1016.3 |
| 20260503015644 | 36 | 1 | 1.0 | 4.0 | 0.00 | 0.00 | 0.00 | 76 | 1016.0 |
| 20260503015141 | 36 | 60 | 2.0 | 4.0 | 0.00 | 0.00 | 0.00 | 77 | 1016.0 |
| 20260503014637 | 35 | 69 | 1.0 | 3.0 | 0.00 | 0.00 | 0.00 | 74 | 1016.1 |
| 20260503014135 | 35 | 73 | 0.0 | 3.0 | 0.00 | 0.00 | 0.00 | 79 | 1016.3 |
| 20260503013632 | 35 | 85 | 1.0 | 2.0 | 0.00 | 0.00 | 0.00 | 78 | 1015.8 |
| 20260503013130 | 35 | 77 | 0.0 | 3.0 | 0.00 | 0.00 | 0.00 | 78 | 1016.3 |
| 20260503012627 | 35 | 142 | 1.0 | 3.0 | 0.00 | 0.00 | 0.00 | 75 | 1016.0 |
| 20260503012123 | 35 | 80 | 2.0 | 3.0 | 0.00 | 0.00 | 0.00 | 77 | 1015.8 |
| 20260503011620 | 35 | 1 | 1.0 | 3.0 | 0.00 | 0.00 | 0.00 | 77 | 1015.9 |
| 20260503011117 | 35 | 110 | 1.0 | 3.0 | 0.00 | 0.00 | 0.00 | 76 | 1015.9 |
| 20260503010613 | 35 | 102 | 0.0 | 2.0 | 0.00 | 0.00 | 0.00 | 73 | 1015.7 |
| 20260503010111 | 36 | 156 | 2.0 | 4.0 | 0.00 | 0.00 | 0.00 | 72 | 1015.7 |
| 20260503005608 | 37 | 105 | 2.0 | 3.0 | 0.00 | 0.00 | 0.00 | 65 | 1015.7 |
| 20260503005105 | 36 | 165 | 0.0 | 4.0 | 0.00 | 0.00 | 0.00 | 69 | 1015.6 |
| 20260503004601 | 36 | 158 | 0.0 | 5.0 | 0.00 | 0.00 | 0.00 | 71 | 1015.7 |
| 20260503004100 | 37 | 100 | 2.0 | 4.0 | 0.00 | 0.00 | 0.00 | 71 | 1015.7 |
| 20260503003555 | 38 | 111 | 1.0 | 4.0 | 0.00 | 0.00 | 0.00 | 62 | 1015.7 |
| 20260503003053 | 39 | 128 | 1.0 | 2.0 | 0.00 | 0.00 | 0.00 | 60 | 1015.4 |
| 20260503002550 | 39 | 138 | 3.0 | 7.0 | 0.00 | 0.00 | 0.00 | 59 | 1015.6 |
| 20260503002047 | 40 | 98 | 1.0 | 8.0 | 0.00 | 0.00 | 0.00 | 58 | 1015.5 |
| 20260503001543 | 40 | 114 | 5.0 | 8.0 | 0.00 | 0.00 | 0.00 | 60 | 1015.5 |
| 20260503001040 | 40 | 82 | 7.0 | 7.0 | 0.00 | 0.00 | 0.00 | 57 | 1015.6 |
| 20260503000538 | 41 | 68 | 5.0 | 6.0 | 0.00 | 0.00 | 0.00 | 55 | 1015.6 |
| 20260503000035 | 41 | 118 | 6.0 | 8.0 | 0.00 | 0.00 | 0.00 | 54 | 1015.5 |
| 20260502235531 | 41 | 115 | 4.0 | 5.0 | 0.00 | 0.00 | 0.00 | 54 | 1015.4 |
| 20260502235029 | 41 | 113 | 3.0 | 7.0 | 0.00 | 0.00 | 0.00 | 53 | 1015.5 |
| 20260502234525 | 41 | 118 | 4.0 | 7.0 | 0.00 | 0.00 | 0.00 | 54 | 1015.2 |
| 20260502234024 | 41 | 149 | 3.0 | 6.0 | 0.00 | 0.00 | 0.00 | 54 | 1015.4 |
| 20260502233523 | 41 | 149 | 5.0 | 7.0 | 0.00 | 0.00 | 0.00 | 54 | 1015.4 |
| 20260502233021 | 41 | 168 | 3.0 | 9.0 | 0.00 | 0.00 | 0.00 | 52 | 1014.9 |
| 20260502232517 | 41 | 196 | 8.0 | 15.0 | 0.00 | 0.00 | 0.00 | 52 | 1015.0 |
| 20260502232014 | 41 | 107 | 2.0 | 11.0 | 0.00 | 0.00 | 0.00 | 54 | 1015.0 |
| 20260502231511 | 41 | 141 | 4.0 | 11.0 | 0.00 | 0.00 | 0.00 | 53 | 1015.0 |
| 20260502231009 | 41 | 205 | 2.0 | 10.0 | 0.00 | 0.00 | 0.00 | 54 | 1015.0 |
| 20260502230507 | 41 | 52 | 5.0 | 10.0 | 0.00 | 0.00 | 0.00 | 51 | 1015.2 |
| 20260502230005 | 42 | 120 | 1.0 | 4.0 | 0.00 | 0.00 | 0.00 | 54 | 1014.9 |
| 20260502225500 | 42 | 154 | 2.0 | 7.0 | 0.00 | 0.00 | 0.00 | 51 | 1014.9 |
| 20260502224958 | 42 | 124 | 4.0 | 11.0 | 0.00 | 0.00 | 0.00 | 51 | 1015.0 |
| 20260502224454 | 42 | 99 | 2.0 | 6.0 | 0.00 | 0.00 | 0.00 | 52 | 1015.2 |
| 20260502223951 | 42 | 36 | 3.0 | 4.0 | 0.00 | 0.00 | 0.00 | 51 | 1014.9 |
| 20260502223449 | 42 | 303 | 3.0 | 9.0 | 0.00 | 0.00 | 0.00 | 51 | 1015.0 |
| 20260502222946 | 42 | 21 | 2.0 | 9.0 | 0.00 | 0.00 | 0.00 | 50 | 1015.2 |
| 20260502222444 | 42 | 173 | 5.0 | 10.0 | 0.00 | 0.00 | 0.00 | 49 | 1015.0 |
| 20260502221944 | 42 | 174 | 3.0 | 9.0 | 0.00 | 0.00 | 0.00 | 48 | 1014.9 |
| 20260502221441 | 43 | 78 | 4.0 | 12.0 | 0.00 | 0.00 | 0.00 | 50 | 1014.8 |
| 20260502220938 | 43 | 93 | 1.0 | 6.0 | 0.00 | 0.00 | 0.00 | 51 | 1015.0 |
| 20260502220434 | 43 | 85 | 4.0 | 9.0 | 0.00 | 0.00 | 0.00 | 49 | 1015.0 |
| 20260502215931 | 43 | 208 | 6.0 | 9.0 | 0.00 | 0.00 | 0.00 | 50 | 1014.6 |
| 20260502215428 | 43 | 103 | 4.0 | 7.0 | 0.00 | 0.00 | 0.00 | 50 | 1015.0 |
| 20260502214925 | 43 | 17 | 5.0 | 10.0 | 0.00 | 0.00 | 0.00 | 48 | 1014.9 |
| 20260502214422 | 43 | 196 | 6.0 | 13.0 | 0.00 | 0.00 | 0.00 | 48 | 1014.7 |
| 20260502213919 | 44 | 163 | 1.0 | 9.0 | 0.00 | 0.00 | 0.00 | 49 | 1014.7 |
| 20260502213416 | 43 | 63 | 2.0 | 9.0 | 0.00 | 0.00 | 0.00 | 49 | 1014.5 |
| 20260502212915 | 43 | 32 | 2.0 | 10.0 | 0.00 | 0.00 | 0.00 | 49 | 1014.5 |
| 20260502212413 | 43 | 77 | 4.0 | 9.0 | 0.00 | 0.00 | 0.00 | 49 | 1014.7 |
| 20260502211910 | 44 | 80 | 2.0 | 8.0 | 0.00 | 0.00 | 0.00 | 49 | 1014.6 |
| 20260502211410 | 44 | 95 | 3.0 | 4.0 | 0.00 | 0.00 | 0.00 | 47 | 1014.5 |
| 20260502210908 | 43 | 24 | 10.0 | 12.0 | 0.00 | 0.00 | 0.00 | 49 | 1014.8 |
| 20260502210405 | 43 | 100 | 4.0 | 7.0 | 0.00 | 0.00 | 0.00 | 50 | 1014.7 |
| 20260502205902 | 43 | 141 | 7.0 | 14.0 | 0.00 | 0.00 | 0.00 | 48 | 1014.6 |
| 20260502205358 | 42 | 118 | 5.0 | 14.0 | 0.00 | 0.00 | 0.00 | 49 | 1014.6 |
| 20260502204856 | 42 | 134 | 1.0 | 11.0 | 0.00 | 0.00 | 0.00 | 49 | 1014.8 |